Back to catalog

STARLINK-36407

AliveCommunicationsSSO
NORAD 67612·PAYLOAD·🇺🇸 United States

Launched Jan 29, 2026 from Vandenberg Space Force Base

Loading…

Next Passes (next 24 hours)

TLE

FreshSource: CelesTrak SupGP

Epoch: Sep 15, 2026, 03:22 UTC

1 67612C 26018Z   26258.14076389  .00017156  00000+0  53257-3 0  2582
2 67612  97.2850 321.7218 0000907  82.5977 215.1470 15.33430384    18

Track STARLINK-36407 in real time with AllMySat

Download on the App Store